Preview of NWS' New Version of Forecast
This preview is not operational and should not be used for support decisions.

Regional Weather Roundup (RWR)

Issued by National Weather Service (NWS)

                            
000
ASUS44 KMEG 180800
RWRTN 
TENNESSEE HOURLY STATE WEATHER ROUNDUP
NATIONAL WEATHER SERVICE MEMPHIS TN
300 AM CDT THU APR 18 2019

TNZ002-004-019-021-049-052-054-088>092-180900-
WEST TENNESSEE
  
CITY           SKY/WX    TMP DP  RH WIND       PRES   REMARKS
MEMPHIS INTL   MOCLDY    65  61  87 S13       29.74F                  
NWS MEMPHIS      N/A     65 N/A N/A MISG        N/A                   
JACKSON        FAIR      64  58  80 S8        29.79F                  
DYERSBURG      MOCLDY    65  60  84 VRB3      29.76F                  
$$

TNZ008-025-027-028-033-062-065-066-180900-
NORTH MIDDLE TENNESSEE
  
CITY           SKY/WX    TMP DP  RH WIND       PRES   REMARKS
NASHVILLE      CLOUDY    65  51  60 SE5       29.85S                  
CLARKSVILLE    FAIR      58  49  72 S6        29.80F                  
SMYRNA         FAIR      62  54  74 CALM      29.86F                  
CROSSVILLE     FAIR      63  50  62 S8        29.93S                  
$$

TNZ061-075-076-078-094-096-097-180900-
SOUTH MIDDLE TENNESSEE
  
CITY           SKY/WX    TMP DP  RH WIND       PRES   REMARKS
$$

TNZ017-018-042-046-047-180900-
NORTHEAST TENNESSEE
  
CITY           SKY/WX    TMP DP  RH WIND       PRES   REMARKS
TRI CITIES     FAIR      50  46  86 CALM      29.94F                  
$$

TNZ012-013-036-069-073-074-180900-
CENTRAL EAST TENNESSEE
  
CITY           SKY/WX    TMP DP  RH WIND       PRES   REMARKS
KNOXVILLE      CLOUDY    58  50  75 SW3       29.90F                  
OAK RIDGE      FAIR      61  49  64 CALM      29.93S                  
$$

TNZ083-085-099-180900-
SOUTHEAST TENNESSEE
  
CITY           SKY/WX    TMP DP  RH WIND       PRES   REMARKS
CHATTANOOGA    FAIR      65  52  62 SW3       29.92R                  
$$

SKY/WX REPORTED AS FAIR MEANS FEW OR NO CLOUDS BELOW
12 THOUSAND FEET.